Regional Weather Roundup
Issued by NWS

Home | Current Version | Previous Version | Text Only | Print | Product List | Glossary On
Versions: 1 2 3 4 5 6 7 8 9 10 11 12 13 14 15 16 17 18 19 20 21 22 23 24 25 26 27 28 29 30 31 32 33 34 35 36 37 38 39 40 41 42 43 44 45 46 47 48 49 50
000
ASPQ40 PGUM 312210
RWRPQ
WEATHER ROUNDUP FOR THE MARIANAS AND MICRONESIA
NATIONAL WEATHER SERVICE TIYAN GU
800 AM CHST TUE SEP 01 2015

GUZ001>004-312300-
MARIANA ISLANDS-

CITY           SKY/WX    TMP DP  RH WIND       PRES   REMARKS
GUAM AIRPORT   MOSUNNY   82  77  83 SE6       29.88R HX  91
ANDERSEN AFB   PTSUNNY   81  77  89 E7        29.89R
ROTA AIRPORT   PTSUNNY   79  77  94 E6        29.88R
TINIAN AP      MOSUNNY   84  75  74 E7        29.86R HX  92
SAIPAN AP      MOSUNNY   82  79  89 E10       29.87R HX  93

$$

PMZ161-312300-
REPUBLIC OF PALAU-

CITY           SKY/WX    TMP DP  RH WIND       PRES   REMARKS
KOROR AP       CLOUDY    79  77  94 SW3       29.82R
KOROR WSO      CLOUDY    79  77  94 S5        29.85R

$$

PMZ171>174-312300-
FEDERATED STATES OF MICRONESIA-

CITY           SKY/WX    TMP DP  RH WIND       PRES   REMARKS
YAP AIRPORT    NOT AVBL
CHUUK AP       NOT AVBL
POHNPEI AP     CLOUDY    82  77  83 NW12      29.83  HX  91
POHNPEI WSO    NOT AVBL
KOSRAE AP      CLOUDY    82  79  89 VRB3      29.82R HX  93

$$

PMZ181-312300-
REPUBLIC OF THE MARSHALL ISLANDS-

CITY           SKY/WX    TMP DP  RH WIND       PRES   REMARKS
KWAJALEIN AP   SUNNY     86  75  70 CALM      29.84R HX  95
MAJURO AP      MOSUNNY   86  75  70 SW12      29.82R HX  95
MAJURO WSO     NOT AVBL

$$




USA.gov is the U.S. government's official web portal to all federal, state and local government web resources and services.